Location: Chervonnoye
(48.6000°N, 34.4000°E)
Time: 06:24:19
(UTC+00:00)

BEESAT 3 - Pass Details

Date: 07 December 2021
Orbit: 472 x 512 km, 64.9° (Epoch: 22 January)

Event Time Altitude Azimuth Distance (km) Brightness Sun altitude
Rises 15:47:54 0° 193° (SSW) 2,543 ? -19.0°
Reaches altitude 10° 15:50:08 10° 184° (S) 1,675 ? -19.4°
Enters shadow 15:52:33 28° 150° (SSE) 948 ? -19.8°
